TimeEST,TemperatureF,Dew PointF,Humidity,Sea Level PressureIn,VisibilityMPH,Wind Direction,Wind SpeedMPH,Gust SpeedMPH,PrecipitationIn,Events,Conditions,WindDirDegrees,DateUTC
12:15 AM,52.7,46.9,81,30.47,10.0,East,3.5,-,N/A,,Clear,90,2012-11-12 05:15:00
12:35 AM,52.7,46.9,81,30.46,10.0,East,3.5,-,N/A,,Clear,100,2012-11-12 05:35:00
12:55 AM,52.7,46.9,81,30.45,10.0,East,3.5,-,N/A,,Clear,100,2012-11-12 05:55:00
1:15 AM,52.7,46.9,81,30.44,10.0,Calm,Calm,-,N/A,,Clear,0,2012-11-12 06:15:00
1:55 AM,52.7,46.9,81,30.43,10.0,Calm,Calm,-,N/A,,Clear,0,2012-11-12 06:55:00
2:15 AM,52.7,46.9,81,30.43,10.0,Calm,Calm,-,N/A,,Clear,0,2012-11-12 07:15:00
2:35 AM,52.7,46.9,81,30.43,10.0,Calm,Calm,-,N/A,,Clear,0,2012-11-12 07:35:00
2:55 AM,52.7,46.9,81,30.43,10.0,Calm,Calm,-,N/A,,Clear,0,2012-11-12 07:55:00
3:15 AM,52.7,46.9,81,30.42,7.0,Calm,Calm,-,N/A,,Clear,0,2012-11-12 08:15:00
3:35 AM,52.7,46.9,81,30.41,7.0,Calm,Calm,-,N/A,,Clear,0,2012-11-12 08:35:00
3:55 AM,52.7,46.9,81,30.41,5.0,Calm,Calm,-,N/A,,Haze,0,2012-11-12 08:55:00
4:15 AM,52.7,46.9,81,30.41,7.0,Calm,Calm,-,N/A,,Clear,0,2012-11-12 09:15:00
4:35 AM,52.7,46.9,81,30.41,7.0,Calm,Calm,-,N/A,,Clear,0,2012-11-12 09:35:00
4:55 AM,52.7,46.9,81,30.41,4.0,Calm,Calm,-,N/A,,Haze,0,2012-11-12 09:55:00
5:15 AM,52.2,46.4,81,30.42,7.0,Calm,Calm,-,N/A,,Clear,0,2012-11-12 10:15:00
5:35 AM,51.3,45.7,81,30.41,1.2,Calm,Calm,-,N/A,,Haze,0,2012-11-12 10:35:00
5:55 AM,50.2,44.6,81,30.42,3.0,Calm,Calm,-,N/A,,Haze,0,2012-11-12 10:55:00
6:15 AM,52.7,46.9,81,30.42,4.0,Calm,Calm,-,N/A,,Haze,0,2012-11-12 11:15:00
6:35 AM,52.7,46.9,81,30.42,1.5,Calm,Calm,-,N/A,,Haze,0,2012-11-12 11:35:00
6:55 AM,52.7,46.9,81,30.41,4.0,Calm,Calm,-,N/A,,Haze,0,2012-11-12 11:55:00
7:15 AM,52.7,46.9,81,30.41,4.0,Calm,Calm,-,N/A,,Haze,0,2012-11-12 12:15:00
7:55 AM,58.1,52.0,80,30.41,10.0,East,3.5,-,N/A,,Clear,90,2012-11-12 12:55:00
8:15 AM,58.1,52.0,80,30.42,10.0,Calm,Calm,-,N/A,,Clear,0,2012-11-12 13:15:00
8:35 AM,60.6,54.5,80,30.41,10.0,East,3.5,-,N/A,,Clear,90,2012-11-12 13:35:00
8:55 AM,63.0,55.9,78,30.41,10.0,Calm,Calm,-,N/A,,Clear,0,2012-11-12 13:55:00
9:15 AM,65.7,57.2,74,30.41,10.0,ESE,3.5,-,N/A,,Clear,110,2012-11-12 14:15:00
9:35 AM,68.0,58.3,71,30.41,10.0,SE,4.6,-,N/A,,Clear,130,2012-11-12 14:35:00
9:55 AM,70.7,59.9,69,30.40,10.0,SE,4.6,-,N/A,,Clear,140,2012-11-12 14:55:00
10:15 AM,73.0,61.7,67,30.40,10.0,SE,4.6,-,N/A,,Clear,130,2012-11-12 15:15:00
10:55 AM,73.0,59.4,62,30.39,10.0,SE,9.2,-,N/A,,Clear,140,2012-11-12 15:55:00
11:15 AM,73.2,59.7,63,30.38,10.0,SE,10.4,-,N/A,,Clear,130,2012-11-12 16:15:00
11:35 AM,74.5,60.6,62,30.37,10.0,SE,9.2,-,N/A,,Clear,140,2012-11-12 16:35:00
11:55 AM,75.6,61.0,60,30.36,10.0,SE,8.1,-,N/A,,Clear,140,2012-11-12 16:55:00
12:15 PM,77.9,62.1,58,30.35,10.0,SE,10.4,17.3,N/A,,Clear,140,2012-11-12 17:15:00
12:35 PM,78.1,61.9,57,30.34,10.0,SSE,8.1,-,N/A,,Clear,160,2012-11-12 17:35:00
12:55 PM,78.1,62.4,58,30.34,10.0,SE,6.9,-,N/A,,Scattered Clouds,130,2012-11-12 17:55:00
1:15 PM,78.1,61.7,57,30.32,10.0,SSE,4.6,-,N/A,,Clear,150,2012-11-12 18:15:00
1:35 PM,78.1,60.8,55,30.32,10.0,SE,6.9,-,N/A,,Clear,140,2012-11-12 18:35:00
1:55 PM,78.1,59.4,52,30.31,10.0,SE,9.2,-,N/A,,Clear,140,2012-11-12 18:55:00
2:15 PM,76.6,59.2,55,30.31,10.0,SSE,8.1,-,N/A,,Clear,160,2012-11-12 19:15:00
2:35 PM,75.6,59.7,58,30.30,10.0,ESE,6.9,-,N/A,,Scattered Clouds,120,2012-11-12 19:35:00
2:55 PM,75.0,60.6,61,30.29,10.0,SE,10.4,-,N/A,,Scattered Clouds,130,2012-11-12 19:55:00
3:15 PM,74.7,60.4,61,30.29,10.0,ESE,9.2,-,N/A,,Clear,110,2012-11-12 20:15:00
3:35 PM,73.0,59.9,63,30.29,10.0,SE,11.5,-,N/A,,Clear,130,2012-11-12 20:35:00
3:55 PM,73.0,60.8,65,30.28,10.0,SE,8.1,-,N/A,,Clear,130,2012-11-12 20:55:00
4:15 PM,73.0,61.9,68,30.28,10.0,SE,8.1,-,N/A,,Clear,130,2012-11-12 21:15:00
4:35 PM,73.0,62.8,70,30.28,10.0,SE,6.9,-,N/A,,Scattered Clouds,130,2012-11-12 21:35:00
4:55 PM,72.7,63.5,73,30.27,10.0,SE,6.9,-,N/A,,Clear,140,2012-11-12 21:55:00
5:15 PM,70.3,62.1,75,30.28,10.0,SE,5.8,-,N/A,,Clear,140,2012-11-12 22:15:00
5:35 PM,70.7,62.6,75,30.27,10.0,SE,4.6,-,N/A,,Mostly Cloudy,140,2012-11-12 22:35:00
5:55 PM,68.2,60.8,77,30.27,10.0,SE,6.9,-,N/A,,Mostly Cloudy,130,2012-11-12 22:55:00
6:15 PM,68.0,60.8,78,30.27,10.0,SSE,4.6,-,N/A,,Overcast,150,2012-11-12 23:15:00
6:35 PM,68.0,61.0,78,30.27,10.0,SE,6.9,-,N/A,,Overcast,130,2012-11-12 23:35:00
6:55 PM,68.0,61.0,78,30.28,10.0,South,6.9,-,N/A,,Overcast,170,2012-11-12 23:55:00
7:15 PM,66.0,59.5,80,30.29,7.0,South,4.6,-,0.01,Rain,Rain,170,2012-11-13 00:15:00
7:35 PM,65.5,59.4,81,30.28,7.0,South,3.5,-,0.01,,Drizzle,180,2012-11-13 00:35:00
7:55 PM,64.9,58.8,81,30.27,10.0,SE,3.5,-,0.01,,Overcast,140,2012-11-13 00:55:00
8:15 PM,64.8,58.6,81,30.27,10.0,SE,3.5,-,N/A,,Overcast,140,2012-11-13 01:15:00
8:35 PM,64.6,58.3,80,30.26,10.0,SE,6.9,-,N/A,,Overcast,130,2012-11-13 01:35:00
8:55 PM,64.8,58.8,81,30.26,10.0,SSE,5.8,-,N/A,,Overcast,150,2012-11-13 01:55:00
9:35 PM,65.1,59.0,81,30.25,10.0,SSE,6.9,-,0.01,,Mostly Cloudy,160,2012-11-13 02:35:00
9:55 PM,64.6,58.5,80,30.25,10.0,SSE,3.5,-,0.01,,Scattered Clouds,160,2012-11-13 02:55:00
10:15 PM,64.4,58.3,80,30.24,10.0,South,4.6,-,N/A,,Clear,170,2012-11-13 03:15:00
10:35 PM,64.4,58.1,80,30.24,10.0,SSE,4.6,-,N/A,,Clear,160,2012-11-13 03:35:00
10:55 PM,64.2,58.1,80,30.24,10.0,SSE,3.5,-,N/A,,Clear,150,2012-11-13 03:55:00
11:15 PM,64.4,58.1,80,30.23,10.0,SSE,4.6,-,N/A,,Clear,160,2012-11-13 04:15:00
11:35 PM,64.4,58.1,80,30.22,10.0,SSE,4.6,-,N/A,,Clear,160,2012-11-13 04:35:00
11:55 PM,64.4,58.1,80,30.22,10.0,SSE,5.8,-,N/A,,Clear,160,2012-11-13 04:55:00